Weather History for St. Paul Lake Elmo, MN

Change the Weather History Date:

Monday, December 16, 2013

  Actual Average (KSTP) Record (KSTP)
Temperature  
Mean Temperature 10 °F -  
Max Temperature 23 °F 27 °F 46 °F (1997)
Min Temperature 0 °F 12 °F -9 °F (2008)
Degree Days  
Heating Degree Days 54    
Moisture  
Dew Point 3 °F    
Average Humidity 79    
Maximum Humidity 93    
Minimum Humidity 61    
Precipitation  
Precipitation 0.01 in - - ()
Sea Level Pressure  
Sea Level Pressure 30.00 in    
Wind  
Wind Speed 5 mph (South)    
Max Wind Speed 12 mph    
Max Gust Speed 13 mph    
Visibility 7 miles    
Events Snow    
Averages and records for this station are not official NWS values.
T = Trace of Precipitation, MM = Missing Value Source: NWS Daily Summary

Daily Weather History Graph

Daily Weather History Graph

Search for Another Location

Airport:

Trip Planner

Search our weather history database for the weather conditions in past years. The results will help you decide how hot, cold, wet, or windy it might be!

Date:

Astronomy

Dec. 16, 2013 Rise Set
Actual Time 7:43 AM CST 4:30 PM CST
Civil Twilight 7:09 AM CST 5:04 PM CST
Nautical Twilight 6:32 AM CST 5:41 PM CST
Astronomical Twilight 5:56 AM CST 6:17 PM CST
Moon 4:24 PM CST (12/16) 6:50 AM CST (12/16)
Length of Visible Light 9h 54m
Length of Day
8h 47m
Full, 100% of the Moon is Illuminated
Dec 16
Full
Dec 17
Full
Dec 25
Last Quarter
Jan 1
New
Jan 7
First Quarter

Hourly Weather History & Observations

Time (CST) Temp. Windchill Dew Point Humidity Pressure Visibility Wind Dir Wind Speed Gust Speed Precip Events Conditions
12:11 AM -0.4 °F -8.3 °F -9.4 °F 66% 30.12 in 10.0 mi East 3.5 mph - N/A   Overcast
12:31 AM -0.4 °F -8.3 °F -9.4 °F 66% 30.12 in 10.0 mi East 3.5 mph - N/A   Overcast
12:52 AM 1.4 °F -6.2 °F -9.4 °F 61% 30.11 in 10.0 mi ESE 3.5 mph - N/A   Overcast
1:11 AM -0.4 °F -8.3 °F -9.4 °F 66% 30.11 in 10.0 mi East 3.5 mph - N/A   Overcast
1:31 AM 1.4 °F -6.2 °F -9.4 °F 61% 30.09 in 10.0 mi ESE 3.5 mph - N/A   Overcast
1:52 AM 1.4 °F -8.3 °F -9.4 °F 61% 30.09 in 10.0 mi SE 4.6 mph - N/A   Overcast
2:11 AM 1.4 °F - -9.4 °F 61% 30.09 in 10.0 mi Calm Calm - N/A   Overcast
2:31 AM 1.4 °F -8.3 °F -9.4 °F 61% 30.10 in 10.0 mi SE 4.6 mph - N/A   Overcast
2:52 AM 1.4 °F -8.3 °F -7.6 °F 66% 30.09 in 10.0 mi SE 4.6 mph - N/A   Overcast
3:11 AM 1.4 °F -6.2 °F -7.6 °F 66% 30.09 in 10.0 mi South 3.5 mph - N/A   Overcast
3:31 AM 1.4 °F -8.3 °F -7.6 °F 66% 30.08 in 10.0 mi SSE 4.6 mph - N/A   Overcast
3:52 AM 1.4 °F -11.3 °F -7.6 °F 66% 30.06 in 10.0 mi SE 6.9 mph - N/A   Overcast
4:11 AM 1.4 °F -8.3 °F -7.6 °F 66% 30.06 in 10.0 mi SE 4.6 mph - N/A   Overcast
4:31 AM 1.4 °F - -7.6 °F 66% 30.06 in 10.0 mi Calm Calm - N/A   Overcast
4:52 AM 1.4 °F - -7.6 °F 66% 30.08 in 10.0 mi Calm Calm - N/A   Overcast
5:11 AM 3.2 °F -7.8 °F -5.8 °F 66% 30.04 in 10.0 mi SE 5.8 mph - N/A   Overcast
5:31 AM 1.4 °F -11.3 °F -7.6 °F 66% 30.03 in 10.0 mi SE 6.9 mph - N/A   Overcast
5:52 AM 3.2 °F -6.2 °F -5.8 °F 66% 30.04 in 10.0 mi SSE 4.6 mph - N/A   Overcast
6:11 AM 3.2 °F -4.2 °F -5.8 °F 66% 30.05 in 10.0 mi SE 3.5 mph - N/A   Overcast
6:31 AM 3.2 °F -7.8 °F -5.8 °F 66% 30.04 in 10.0 mi SE 5.8 mph - N/A   Overcast
6:51 AM 3.2 °F -6.2 °F -5.8 °F 66% 30.04 in 10.0 mi SSE 4.6 mph - N/A   Overcast
7:11 AM 3.2 °F -7.8 °F -5.8 °F 66% 30.04 in 10.0 mi SE 5.8 mph - N/A   Overcast
7:32 AM 3.2 °F -6.2 °F -4.0 °F 72% 30.02 in 10.0 mi ESE 4.6 mph - N/A   Overcast
7:51 AM 3.2 °F -10.3 °F -4.0 °F 72% 30.02 in 10.0 mi SE 8.1 mph - N/A   Overcast
8:11 AM 3.2 °F -7.8 °F -4.0 °F 72% 30.01 in 10.0 mi SE 5.8 mph - N/A   Overcast
8:32 AM 5.0 °F -5.6 °F -4.0 °F 66% 30.01 in 7.0 mi SE 5.8 mph - N/A   Overcast
8:51 AM 5.0 °F - -0.4 °F 78% 30.02 in 1.0 mi Calm Calm - N/A Snow Light Snow
9:11 AM 5.0 °F -2.1 °F -0.4 °F 78% 30.02 in 0.8 mi SSE 3.5 mph - N/A Snow Light Snow
9:32 AM 5.0 °F -6.9 °F 1.4 °F 85% 30.03 in 0.2 mi South 6.9 mph - N/A Snow Snow
9:51 AM 5.0 °F -6.9 °F 1.4 °F 85% 30.01 in 0.2 mi SSE 6.9 mph - 0.01 in Snow Snow
10:11 AM 5.0 °F -6.9 °F 1.4 °F 85% 30.01 in 2.0 mi SSE 6.9 mph - N/A Snow Light Snow
10:32 AM 6.8 °F -3.5 °F 1.4 °F 79% 30.01 in 5.0 mi SSE 5.8 mph - N/A Snow Light Snow
10:51 AM 6.8 °F -7.8 °F 3.2 °F 85% 29.98 in 7.0 mi SSE 10.4 mph - N/A Snow Light Snow
11:11 AM 8.6 °F -3.7 °F 3.2 °F 79% 29.98 in 5.0 mi South 8.1 mph - N/A   Haze
11:32 AM 8.6 °F -3.7 °F 3.2 °F 79% 29.96 in 7.0 mi South 8.1 mph 12.7 mph N/A Snow Light Snow
11:51 AM 8.6 °F -2.6 °F 3.2 °F 79% 29.98 in 10.0 mi SSW 6.9 mph - N/A   Overcast
12:12 PM 8.6 °F -1.3 °F 5.0 °F 85% 29.97 in 7.0 mi South 5.8 mph - N/A Snow Light Snow
12:31 PM 10.4 °F -0.4 °F 5.0 °F 79% 29.98 in 3.0 mi South 6.9 mph - N/A Snow Light Snow
12:51 PM 10.4 °F 0.8 °F 6.8 °F 85% 29.96 in 2.0 mi South 5.8 mph - N/A Snow Light Snow
1:12 PM 10.4 °F 0.8 °F 8.6 °F 92% 29.96 in 4.0 mi South 5.8 mph - N/A Snow Light Snow
1:31 PM 12.2 °F 2.9 °F 8.6 °F 85% 29.95 in 1.8 mi South 5.8 mph - N/A Snow Light Snow
1:51 PM 12.2 °F 4.3 °F 8.6 °F 85% 29.94 in 1.8 mi South 4.6 mph - N/A Snow Light Snow
2:12 PM 12.2 °F 2.9 °F 10.4 °F 92% 29.95 in 2.0 mi SSW 5.8 mph - N/A Snow Light Snow
2:31 PM 14.0 °F 5.1 °F 10.4 °F 86% 29.95 in 2.0 mi SSW 5.8 mph - N/A Snow Light Snow
2:52 PM 14.0 °F 3.9 °F 10.4 °F 86% 29.95 in 2.5 mi SW 6.9 mph - N/A Snow Light Snow
3:12 PM 15.8 °F 6.1 °F 12.2 °F 86% 29.97 in 5.0 mi WSW 6.9 mph - N/A Snow Light Snow
3:31 PM 15.8 °F 5.1 °F 12.2 °F 86% 29.97 in 5.0 mi WSW 8.1 mph - N/A Snow Light Snow
3:52 PM 17.6 °F 7.3 °F 12.2 °F 79% 29.97 in 7.0 mi SW 8.1 mph - N/A Snow Light Snow
4:11 PM 17.6 °F 9.3 °F 12.2 °F 79% 29.97 in 4.0 mi SSW 5.8 mph - N/A Snow Light Snow
4:31 PM 17.6 °F 8.2 °F 12.2 °F 79% 29.97 in 7.0 mi SW 6.9 mph - N/A Snow Light Snow
4:52 PM 17.6 °F 10.7 °F 12.2 °F 79% 29.97 in 10.0 mi WSW 4.6 mph - N/A Snow Light Snow
5:11 PM 17.6 °F 10.7 °F 12.2 °F 79% 29.97 in 10.0 mi SW 4.6 mph - N/A Snow Light Snow
5:31 PM 17.6 °F 9.3 °F 12.2 °F 79% 29.97 in 10.0 mi SW 5.8 mph - N/A   Overcast
5:52 PM 17.6 °F 9.3 °F 14.0 °F 86% 29.97 in 10.0 mi SW 5.8 mph - N/A   Overcast
6:11 PM 15.8 °F 8.6 °F 12.2 °F 86% 29.96 in 10.0 mi SW 4.6 mph - N/A   Overcast
6:31 PM 14.0 °F 6.5 °F 12.2 °F 93% 29.96 in 7.0 mi SSW 4.6 mph - N/A   Scattered Clouds
6:52 PM 14.0 °F 5.1 °F 12.2 °F 93% 29.95 in 7.0 mi South 5.8 mph - N/A   Clear
7:11 PM 10.4 °F -0.4 °F 8.6 °F 92% 29.95 in 5.0 mi SSW 6.9 mph - N/A   Scattered Clouds
7:31 PM 10.4 °F -1.5 °F 8.6 °F 92% 29.94 in 7.0 mi South 8.1 mph - N/A   Scattered Clouds
7:52 PM 12.2 °F 2.9 °F 10.4 °F 92% 29.94 in 7.0 mi SSW 5.8 mph - N/A   Clear
8:11 PM 12.2 °F 2.9 °F 10.4 °F 92% 29.94 in 7.0 mi South 5.8 mph - N/A   Clear
8:31 PM 6.8 °F -0.1 °F 5.0 °F 92% 29.94 in 5.0 mi South 3.5 mph - N/A   Clear
8:52 PM 10.4 °F -0.4 °F 8.6 °F 92% 29.94 in 7.0 mi South 6.9 mph - N/A   Clear
9:11 PM 12.2 °F 2.9 °F 10.4 °F 92% 29.93 in 7.0 mi South 5.8 mph - N/A   Clear
9:32 PM 12.2 °F 2.9 °F 8.6 °F 85% 29.94 in 7.0 mi SSW 5.8 mph - N/A   Clear
9:52 PM 10.4 °F -0.4 °F 8.6 °F 92% 29.93 in 5.0 mi South 6.9 mph - N/A   Clear
10:11 PM 12.2 °F 2.9 °F 10.4 °F 92% 29.92 in 5.0 mi South 5.8 mph - N/A   Scattered Clouds
10:32 PM 14.0 °F 5.1 °F 12.2 °F 93% 29.91 in 7.0 mi South 5.8 mph - N/A   Overcast
10:51 PM 15.8 °F 7.2 °F 14.0 °F 93% 29.90 in 7.0 mi South 5.8 mph - N/A   Overcast
11:11 PM 19.4 °F 8.6 °F 17.6 °F 93% 29.90 in 10.0 mi SW 9.2 mph - N/A   Overcast
11:32 PM 21.2 °F 9.5 °F 19.4 °F 93% 29.89 in 10.0 mi WSW 11.5 mph - N/A   Overcast
11:51 PM 23.0 °F 11.7 °F 21.2 °F 93% 29.88 in 10.0 mi WSW 11.5 mph - N/A   Overcast